Pasco, WA

4:03 PM PDT on October 17, 2017 (GMT -0700)
Tri-Cities

Weather History for KPSC - March, 2014

Change the Weather History Date:

Saturday, March 29, 2014

  Actual Average Record
Temperature  
Mean Temperature 55 °F 50 °F  
Max Temperature 67 °F 63 °F 77 °F (1966)
Min Temperature 42 °F 37 °F 27 °F (2016)
Degree Days  
Heating Degree Days 10 15  
Month to date heating degree days 526 549  
Since 1 July heating degree days 4755 4432  
Growing Degree Days 4 (Base 50)    
Moisture  
Dew Point 39 °F    
Average Humidity 59    
Maximum Humidity 86    
Minimum Humidity 31    
Precipitation  
Precipitation 0.00 in 0.03 in 0.17 in (1955)
Month to date precipitation 0.76 0.74  
Year to date precipitation 1.74 2.82  
Snow  
Snow 0.00 in - - ()
Snow Depth 0.00 in    
Sea Level Pressure  
Sea Level Pressure 29.80 in    
Wind  
Wind Speed 11 mph (SW)    
Max Wind Speed 31 mph    
Max Gust Speed 37 mph    
Visibility 10 miles    
Events      
T = Trace of Precipitation, MM = Missing Value Source: NWS Daily Summary

Daily Weather History Graph

Daily Weather History Graph

Search for Another Location

Airport or City:

Trip Planner

Search our weather history database for the weather conditions in past years. The results will help you decide how hot, cold, wet, or windy it might be!

Date:

Astronomy

Mar. 29, 2014 Rise Set
Actual Time 6:41 AM PDT 7:21 PM PDT
Civil Twilight 6:11 AM PDT 7:51 PM PDT
Nautical Twilight 5:35 AM PDT 8:27 PM PDT
Astronomical Twilight 4:58 AM PDT 9:05 PM PDT
Moon 5:57 AM PDT (3/29) 6:30 PM PDT (3/29)
Length of Visible Light 13h 40m
Length of Day
12h 39m
Waning Crescent, 1% of the Moon is Illuminated
Mar 29
Waning Crescent
Mar 30
New
Apr 7
First Quarter
Apr 15
Full
Apr 22
Last Quarter

Hourly Weather History & Observations

Time (PDT) Temp. Windchill Dew Point Humidity Pressure Visibility Wind Dir Wind Speed Gust Speed Precip Events Conditions
12:53 AM 51.1 °F - 46.9 °F 86% 29.78 in 10.0 mi SSE 4.6 mph - N/A   Clear
1:53 AM 50.0 °F - 46.0 °F 86% 29.78 in 10.0 mi South 8.1 mph - N/A   Mostly Cloudy
2:53 AM 50.0 °F - 44.1 °F 80% 29.76 in 10.0 mi SW 8.1 mph - N/A   Overcast
3:53 AM 48.9 °F - 43.0 °F 80% 29.77 in 10.0 mi SSW 9.2 mph - N/A   Clear
4:53 AM 46.0 °F - 42.1 °F 86% 29.78 in 10.0 mi Calm Calm - N/A   Clear
5:53 AM 46.9 °F - 41.0 °F 80% 29.80 in 10.0 mi SSW 15.0 mph - N/A   Clear
6:53 AM 44.1 °F 39.0 °F 39.9 °F 85% 29.82 in 10.0 mi SSW 9.2 mph - N/A   Clear
7:53 AM 48.0 °F - 41.0 °F 77% 29.83 in 10.0 mi SW 6.9 mph - N/A   Clear
8:53 AM 53.1 °F - 39.9 °F 61% 29.83 in 10.0 mi SW 9.2 mph - N/A   Clear
9:53 AM 55.0 °F - 39.9 °F 57% 29.84 in 10.0 mi South 12.7 mph 19.6 mph N/A   Clear
10:53 AM 57.0 °F - 37.9 °F 49% 29.84 in 10.0 mi SW 11.5 mph 24.2 mph N/A   Clear
11:53 AM 60.1 °F - 37.0 °F 42% 29.83 in 10.0 mi SW 16.1 mph 23.0 mph N/A   Clear
12:53 PM 62.1 °F - 37.0 °F 39% 29.82 in 10.0 mi SW 13.8 mph 24.2 mph N/A   Partly Cloudy
1:53 PM 64.9 °F - 35.1 °F 33% 29.79 in 10.0 mi WSW 17.3 mph - N/A   Scattered Clouds
2:53 PM 64.9 °F - 34.0 °F 32% 29.77 in 10.0 mi SW 16.1 mph 26.5 mph N/A   Clear
3:53 PM 63.0 °F - 32.0 °F 31% 29.76 in 10.0 mi SW 20.7 mph 27.6 mph N/A   Mostly Cloudy
4:53 PM 64.9 °F - 33.1 °F 31% 29.75 in 10.0 mi WSW 21.9 mph 27.6 mph N/A   Clear
5:53 PM 59.0 °F - 37.0 °F 44% 29.78 in 10.0 mi WNW 17.3 mph - N/A   Mostly Cloudy
6:53 PM 55.9 °F - 34.0 °F 44% 29.79 in 10.0 mi WSW 16.1 mph - N/A   Scattered Clouds
7:53 PM 52.0 °F - 36.0 °F 54% 29.81 in 10.0 mi SW 17.3 mph 25.3 mph N/A   Clear
8:53 PM 50.0 °F - 37.0 °F 61% 29.83 in 10.0 mi SW 18.4 mph - N/A   Clear
9:53 PM 48.0 °F - 37.0 °F 66% 29.83 in 10.0 mi SW 20.7 mph - N/A   Clear
10:53 PM 46.9 °F - 37.0 °F 68% 29.83 in 10.0 mi SW 18.4 mph - N/A   Clear
11:53 PM 46.9 °F - 37.0 °F 68% 29.84 in 10.0 mi SW 23.0 mph - N/A   Clear